Weather History for Northeast Philadelphia, PA

Change the Weather History Date:

Wednesday, November 9, 2011

  Actual Average Record
Temperature  
Mean Temperature 52 °F -  
Max Temperature 64 °F 53 °F 70 °F (2006)
Min Temperature 39 °F 36 °F 28 °F (2003)
Degree Days  
Heating Degree Days 14    
Growing Degree Days 2 (Base 50)    
Moisture  
Dew Point 43 °F    
Average Humidity 83    
Maximum Humidity 100    
Minimum Humidity 45    
Precipitation  
Precipitation 0.00 in - - ()
Sea Level Pressure  
Sea Level Pressure 30.16 in    
Wind  
Wind Speed 1 mph (SSE)    
Max Wind Speed 8 mph    
Max Gust Speed -    
Visibility 6 miles    
Events Fog    
Averages and records for this station are not official NWS values.
T = Trace of Precipitation, MM = Missing Value Source: NWS Daily Summary

Daily Weather History Graph

Daily Weather History Graph

Search for Another Location

Airport:

Trip Planner

Search our weather history database for the weather conditions in past years. The results will help you decide how hot, cold, wet, or windy it might be!

Date:

Astronomy

Nov. 09, 2011 Rise Set
Actual Time 6:38 AM EST 4:49 PM EST
Civil Twilight 6:09 AM EST 5:17 PM EST
Nautical Twilight 5:37 AM EST 5:50 PM EST
Astronomical Twilight 5:05 AM EST 6:21 PM EST
Moon 3:59 PM EST (11/9) 5:31 AM EST (11/9)
Length of Visible Light 11h 08m
Length of Day
10h 10m
Waxing Gibbous, 99% of the Moon is Illuminated
Nov 9
Waxing Gibbous
Nov 10
Full
Nov 18
Last Quarter
Nov 25
New
Dec 2
First Quarter

Hourly Weather History & Observations

Time (EST) Temp. Windchill Dew Point Humidity Pressure Visibility Wind Dir Wind Speed Gust Speed Precip Events Conditions
12:54 AM 45.0 °F - 42.1 °F 90% 30.23 in 9.0 mi Calm Calm - N/A   Clear
1:54 AM 43.0 °F - 41.0 °F 93% 30.22 in 8.0 mi Calm Calm - N/A   Clear
2:07 AM 42.8 °F - 39.2 °F 87% 30.22 in 1.8 mi Calm Calm - N/A   Clear
2:17 AM 42.8 °F - 39.2 °F 87% 30.22 in 3.0 mi Calm Calm - N/A   Clear
2:54 AM 42.1 °F - 39.0 °F 89% 30.22 in 5.0 mi Calm Calm - N/A   Clear
3:42 AM 41.0 °F - 39.2 °F 93% 30.21 in 1.8 mi Calm Calm - N/A   Clear
3:51 AM 41.0 °F - 39.2 °F 93% 30.20 in 3.0 mi Calm Calm - N/A   Clear
3:54 AM 41.0 °F - 39.0 °F 93% 30.20 in 8.0 mi Calm Calm - N/A   Clear
4:20 AM 41.0 °F - 39.2 °F 93% 30.20 in 1.5 mi Calm Calm - N/A   Clear
4:46 AM 42.8 °F - 39.2 °F 87% 30.21 in 0.8 mi Calm Calm - N/A   Clear
4:51 AM 39.2 °F - 39.2 °F 100% 30.21 in 2.0 mi Calm Calm - N/A   Clear
4:54 AM 41.0 °F - 39.0 °F 93% 30.21 in 3.0 mi Calm Calm - N/A   Clear
5:18 AM 39.2 °F - 37.4 °F 93% 30.20 in 1.8 mi Calm Calm - N/A   Clear
5:30 AM 39.2 °F - 37.4 °F 93% 30.20 in 0.5 mi Calm Calm - N/A Fog Fog
5:44 AM 39.2 °F - 37.4 °F 93% 30.20 in 1.2 mi Calm Calm - N/A   Clear
5:54 AM 39.0 °F - 37.0 °F 93% 30.21 in 3.0 mi Calm Calm - N/A   Partly Cloudy
6:54 AM 39.9 °F - 37.9 °F 93% 30.21 in 3.0 mi Calm Calm - N/A   Clear
6:58 AM 39.2 °F - 37.4 °F 93% 30.21 in 1.5 mi Calm Calm - N/A   Clear
7:00 AM 39.2 °F - 37.4 °F 93% 30.21 in 1.0 mi Calm Calm - N/A   Clear
7:02 AM 39.2 °F - 37.4 °F 93% 30.21 in 1.0 mi Calm Calm - N/A   Clear
7:15 AM 41.0 °F - 37.4 °F 87% 30.21 in 3.0 mi Calm Calm - N/A   Clear
7:54 AM 45.0 °F 43.5 °F 42.1 °F 90% 30.22 in 3.0 mi NE 3.5 mph - N/A   Clear
8:54 AM 50.0 °F - 44.1 °F 80% 30.22 in 9.0 mi Calm Calm - N/A   Clear
9:54 AM 55.0 °F - 44.1 °F 67% 30.20 in 10.0 mi South 3.5 mph - N/A   Clear
10:54 AM 57.9 °F - 43.0 °F 58% 30.19 in 10.0 mi SE 5.8 mph - N/A   Clear
11:54 AM 61.0 °F - 43.0 °F 52% 30.17 in 10.0 mi Variable 3.5 mph - N/A   Clear
12:54 PM 62.6 °F - 42.8 °F 48% 30.14 in 10.0 mi SW 6.9 mph - N/A   Clear
1:54 PM 64.0 °F - 45.0 °F 50% 30.11 in 10.0 mi Variable 5.8 mph - N/A   Clear
2:54 PM 64.9 °F - 43.0 °F 45% 30.09 in 10.0 mi SSW 5.8 mph - N/A   Clear
3:54 PM 64.9 °F - 45.0 °F 48% 30.08 in 10.0 mi Variable 3.5 mph - N/A   Clear
4:54 PM 61.0 °F - 46.9 °F 60% 30.08 in 10.0 mi SW 4.6 mph - N/A   Clear
5:54 PM 59.0 °F - 48.0 °F 67% 30.08 in 10.0 mi SSE 3.5 mph - N/A   Clear
6:54 PM 57.0 °F - 50.0 °F 77% 30.08 in 10.0 mi SSE 3.5 mph - N/A   Clear
7:54 PM 54.0 °F - 52.0 °F 93% 30.05 in 10.0 mi SE 5.8 mph - N/A   Partly Cloudy
8:05 PM 55.4 °F - 53.6 °F 94% 30.05 in 9.0 mi SE 8.1 mph - N/A   Mostly Cloudy
8:54 PM 55.4 °F - 53.6 °F 94% 30.04 in 5.0 mi Variable 6.9 mph - N/A   Overcast
9:54 PM 55.9 °F - 54.0 °F 93% 30.04 in 9.0 mi Calm Calm - N/A   Overcast
10:54 PM 55.9 °F - 54.0 °F 93% 30.03 in 10.0 mi South 4.6 mph - N/A   Overcast
11:54 PM 55.9 °F - 54.0 °F 93% 30.01 in 10.0 mi Calm Calm - N/A   Overcast